Time,TemperatureF,DewpointF,PressureIn,WindDirection,WindDirectionDegrees,WindSpeedMPH,WindSpeedGustMPH,Humidity,HourlyPrecipIn,Conditions,Clouds,dailyrainin,SoftwareType,DateUTC
2013-03-22 00:10:00,54.0,-99.9,-100.00,NW,315,4.0,7.0,-999,-99.99,,,-99.99,,2013-03-22 05:10:00,
2013-03-22 00:32:00,54.0,-99.9,-100.00,NNW,347,6.0,6.0,-999,-99.99,,,-99.99,,2013-03-22 05:32:00,
2013-03-22 00:42:00,54.0,-99.9,-100.00,NNW,347,6.0,6.0,-999,-99.99,,,-99.99,,2013-03-22 05:42:00,
2013-03-22 00:52:00,54.0,-99.9,-100.00,NW,315,4.0,7.0,-999,-99.99,,,-99.99,,2013-03-22 05:52:00,
2013-03-22 01:02:00,54.0,-99.9,-100.00,NW,315,4.0,7.0,-999,-99.99,,,-99.99,,2013-03-22 06:02:00,
2013-03-22 04:10:00,52.0,-99.9,-100.00,NNW,340,7.0,8.0,-999,-99.99,,,-99.99,,2013-03-22 09:10:00,
2013-03-22 04:54:00,52.0,-99.9,-100.00,NNW,340,7.0,8.0,-999,-99.99,,,-99.99,,2013-03-22 09:54:00,
2013-03-22 05:04:00,52.0,-99.9,-100.00,NNW,340,7.0,8.0,-999,-99.99,,,-99.99,,2013-03-22 10:04:00,
2013-03-22 05:23:00,56.0,-99.9,-100.00,NW,316,4.0,8.0,-999,-99.99,,,-99.99,,2013-03-22 10:23:00,
2013-03-22 05:33:00,56.0,-99.9,-100.00,NW,316,4.0,8.0,-999,-99.99,,,-99.99,,2013-03-22 10:33:00,
2013-03-22 07:52:00,51.0,-99.9,-100.00,North,352,2.0,8.0,-999,-99.99,,,-99.99,,2013-03-22 12:52:00,
2013-03-22 08:02:00,50.0,-99.9,-100.00,NNW,334,5.0,8.0,-999,-99.99,,,-99.99,,2013-03-22 13:02:00,
2013-03-22 08:13:00,50.0,-99.9,-100.00,NNW,334,5.0,8.0,-999,-99.99,,,-99.99,,2013-03-22 13:13:00,
2013-03-22 08:22:00,50.0,-99.9,-100.00,NNW,340,4.0,6.0,-999,-99.99,,,-99.99,,2013-03-22 13:22:00,
2013-03-22 08:32:00,49.0,-99.9,-100.00,NNW,341,4.0,6.0,-999,-99.99,,,-99.99,,2013-03-22 13:32:00,
2013-03-22 08:42:00,49.0,-99.9,-100.00,NNW,341,4.0,6.0,-999,-99.99,,,-99.99,,2013-03-22 13:42:00,
2013-03-22 12:33:00,70.0,-99.9,-100.00,WSW,250,13.0,18.0,-999,-99.99,,,-99.99,,2013-03-22 17:33:00,
2013-03-22 12:43:00,70.0,-99.9,-100.00,WSW,250,13.0,18.0,-999,-99.99,,,-99.99,,2013-03-22 17:43:00,
2013-03-22 13:00:00,77.0,-99.9,-100.00,West,263,10.0,15.0,-999,-99.99,,,-99.99,,2013-03-22 18:00:00,
2013-03-22 13:52:00,77.0,-99.9,-100.00,West,263,10.0,15.0,-999,-99.99,,,-99.99,,2013-03-22 18:52:00,
2013-03-22 17:00:00,77.0,-99.9,-100.00,WSW,240,14.0,23.0,-999,-99.99,,,-99.99,,2013-03-22 22:00:00,
2013-03-22 17:53:00,77.0,-99.9,-100.00,WSW,240,14.0,23.0,-999,-99.99,,,-99.99,,2013-03-22 22:53:00,
2013-03-22 18:20:00,80.0,-99.9,-100.00,WSW,245,10.0,19.0,-999,-99.99,,,-99.99,,2013-03-22 23:20:00,
2013-03-22 18:52:00,80.0,-99.9,-100.00,South,173,4.0,13.0,-999,-99.99,,,-99.99,,2013-03-22 23:52:00,
2013-03-22 19:02:00,80.0,-99.9,-100.00,WSW,245,10.0,19.0,-999,-99.99,,,-99.99,,2013-03-23 00:02:00,
2013-03-22 19:12:00,80.0,-99.9,-100.00,WSW,245,10.0,19.0,-999,-99.99,,,-99.99,,2013-03-23 00:12:00,
2013-03-22 23:03:00,62.0,-99.9,-100.00,North,357,4.0,6.0,-999,-99.99,,,-99.99,,2013-03-23 04:03:00,
2013-03-22 23:13:00,62.0,-99.9,-100.00,North,357,4.0,6.0,-999,-99.99,,,-99.99,,2013-03-23 04:13:00,
2013-03-22 23:23:00,62.0,-99.9,-100.00,North,357,4.0,6.0,-999,-99.99,,,-99.99,,2013-03-23 04:23:00,
2013-03-22 23:33:00,59.0,-99.9,-100.00,ESE,105,4.0,5.0,-999,-99.99,,,-99.99,,2013-03-23 04:33:00,
2013-03-22 23:43:00,59.0,-99.9,-100.00,ESE,105,4.0,5.0,-999,-99.99,,,-99.99,,2013-03-23 04:43:00,
2013-03-22 23:53:00,59.0,-99.9,-100.00,ESE,105,4.0,5.0,-999,-99.99,,,-99.99,,2013-03-23 04:53:00,